User: anonymous   Login
Location: Unspecified
(0.0000°N, 0.0000°E)
Time: 16:22:11
(UTC+00:00)
Language:

ANTELSAT - Orbit

View from above orbital plane
View from above orbital plane
View from above satellite
View from above satellite

Ground track
Ground track

The orbit data is extracted from the following two-line orbital elements,

1 40034U 14033AA  21336.81745230  .00000536  00000-0  85299-4 0  9998
2 40034  97.6647 171.4092 0059605  74.1197 286.6571 14.74634938400479
Epoch (UTC): 02 December 2021 19:37:07
Eccentricity: 0.0059605
inclination: 97.6647°
perigee height: 604 km
apogee height: 688 km
right ascension of ascending node: 171.4092°
argument of perigee: 74.1197°
revolutions per day: 14.74634938
mean anomaly at epoch: 286.6571°
orbit number at epoch: 40047

The dashed part of the orbit path shows where the satellite is in the earth's shadow,  

DLR